Helicity
94 115 92 83 77 67 72 65 62 73 75 62 67 64 50 50 113 201 222 181 124 66 45 54 60 113 126 148 162 157 152 172 214 189 139 123 125 147 101 124 145 139 143 132
85 80 42 17 13 23 39 70 52 19 38 4 24 23 52 27 132 153 161 122 68 53 66 60 58 125 139 108 69 104 90 127 146 137 127 126 106 98 117 97 128 157 134 139
36 -2 -6 1 8 19 21 23 32 6 -2 36 19 27 41 80 177 173 127 73 25 41 56 54 48 51 63 77 76 107 124 88 100 145 133 133 136 116 120 103 140 132 146 189
15 0 4 5 1 22 13 29 25 21 14 18 18 26 37 76 100 154 111 96 76 59 62 50 56 45 20 21 30 63 126 147 105 124 146 144 134 114 98 102 110 135 138 153
-6 2 -4 -5 9 25 1 -19 14 -9 8 -33 36 68 32 76 83 161 127 60 73 62 113 140 160 183 137 82 34 24 49 105 118 65 103 94 104 112 100 107 107 127 183 175
-10 11 8 5 20 8 13 -7 -6 3 3 -39 46 102 44 83 161 111 141 130 122 165 149 133 175 188 163 121 64 13 -3 89 97 91 74 37 50 78 71 77 70 106 166 183
5 15 32 22 4 -4 -20 -29 -16 -14 -24 14 84 109 94 125 167 171 161 166 201 215 167 162 186 167 142 105 92 25 0 -15 -3 37 52 71 55 67 73 53 58 133 218 236
1 32 38 33 35 3 -18 24 -39 -19 -8 38 89 100 79 98 142 160 160 172 194 188 146 195 200 145 107 97 78 48 -9 -9 -15 -7 40 75 73 30 66 91 138 151 168 182
4 27 28 50 54 65 17 34 40 48 32 42 36 44 59 15 76 131 135 149 147 160 163 174 180 132 93 79 72 53 26 0 -17 -19 1 -5 19 50 60 69 117 127 113 109
33 35 30 37 47 39 71 53 43 28 7 61 43 62 78 14 52 78 118 139 130 137 151 155 156 136 148 133 79 56 24 11 -12 -10 -11 28 71 46 38 34 45 52 53 62
51 57 63 42 60 75 72 54 57 55 71 49 41 47 69 65 62 56 81 111 127 145 157 152 135 122 114 125 123 111 46 23 7 1 26 2 26 44 49 76 71 64 82 98
45 47 67 83 30 58 72 73 101 87 65 105 104 43 48 84 57 56 59 97 129 190 175 165 140 118 101 99 108 93 82 70 34 9 2 12 -27 -10 -37 11 51 63 87 95
37 47 32 29 17 47 72 74 120 181 178 174 163 98 83 90 25 66 103 112 148 204 194 172 151 122 110 95 87 89 70 51 47 54 25 6 -14 -18 -26 -51 -60 -15 37 47
71 92 142 154 95 125 136 139 166 181 237 238 376 229 172 53 62 69 135 193 209 201 171 158 150 130 120 102 90 85 63 43 31 25 21 8 -4 -11 -19 -38 -54 -58 0 -9
94 106 114 119 126 114 161 168 184 295 367 338 260 215 267 131 63 38 58 94 172 189 172 159 143 139 134 120 102 91 76 55 35 23 7 -8 -18 -23 -25 -16 34 42 45 46
94 77 33 30 75 81 99 106 144 196 225 320 309 233 167 115 43 76 82 77 129 173 172 146 146 154 150 138 117 95 82 70 62 50 34 23 12 9 11 15 21 29 38 46
183 128 54 50 28 -39 41 101 123 168 175 234 239 288 112 65 71 77 93 120 158 173 170 173 189 199 170 147 126 106 87 74 70 57 44 37 32 32 32 35 41 47 51 54
213 168 59 35 -66 -5 71 112 114 180 137 216 173 148 179 108 84 52 101 123 127 136 136 162 188 199 175 163 156 128 105 86 78 68 57 51 47 42 42 47 51 51 56 61
107 129 102 43 14 -10 -46 34 37 5 -8 117 158 90 26 25 76 -31 78 70 75 87 105 138 202 211 203 197 171 169 141 129 109 87 83 82 70 58 53 53 51 51 59 62
163 124 197 216 147 112 82 60 78 16 -44 -66 -8 -51 -61 143 88 55 38 80 32 -23 26 67 158 212 228 180 191 179 135 122 102 93 98 89 76 68 62 61 61 66 66 66
159 155 158 152 219 142 106 122 105 26 25 7 1 16 128 239 186 121 35 -5 -22 24 30 107 187 222 183 196 204 159 131 107 89 112 108 97 87 75 63 63 71 71 67 61
166 160 197 234 245 120 138 167 114 92 92 41 51 88 174 149 118 87 24 36 53 67 94 146 225 214 183 200 214 163 137 104 131 131 117 98 84 69 70 74 73 74 74 84
288 318 208 300 297 199 204 199 163 199 132 107 119 99 112 123 134 95 59 50 64 71 85 136 181 201 211 230 229 189 120 152 138 118 101 97 91 85 86 86 77 89 95 102
211 299 336 281 270 224 281 313 258 215 214 165 164 150 188 165 109 97 82 78 80 85 104 140 186 200 197 211 217 180 177 177 159 126 119 119 115 105 96 97 97 110 106 106
237 234 291 254 297 242 232 220 172 57 105 146 127 147 156 176 146 131 109 80 88 97 110 176 209 224 211 250 238 204 200 212 173 149 144 136 128 116 108 102 99 105 92 102
459 343 310 309 260 253 166 150 53 92 100 56 58 95 135 154 138 133 132 127 115 105 123 139 182 216 212 253 268 258 247 237 211 186 164 149 141 128 121 118 118 101 127 146
Wind_Speed
33 32 36 38 38 38 43 51 60 59 53 73 67 80 79 71 58 47 53 60 67 74 74 76 78 77 81 80 79 78 79 80 79 76 79 80 81 81 84 79 75 68 63 55
29 32 31 33 35 39 43 51 56 55 59 73 65 71 63 46 38 40 50 61 72 77 75 74 76 76 79 81 82 85 81 79 77 72 70 71 73 77 83 81 74 66 66 51
30 30 31 36 41 45 46 45 50 56 63 47 62 50 40 36 35 43 54 59 71 66 69 69 71 73 75 79 83 85 84 79 75 75 68 64 68 73 78 78 78 72 64 60
33 31 34 38 41 44 45 39 46 54 54 47 50 50 31 37 33 40 55 62 49 49 47 51 63 78 81 83 84 82 81 78 75 72 70 66 66 76 75 75 72 72 62 61
33 32 34 38 38 39 33 37 37 31 15 18 34 36 33 32 24 11 18 13 25 25 27 18 28 36 56 62 57 64 70 68 71 71 67 67 64 66 72 73 67 59 45 46
31 13 13 27 22 22 22 25 24 21 17 30 23 34 29 31 23 29 19 32 19 19 19 22 27 32 37 39 37 26 29 57 58 61 62 63 63 65 67 71 70 68 51 42
25 28 28 27 22 22 24 23 25 23 16 13 28 20 18 15 17 19 16 18 20 25 33 34 36 36 34 32 33 27 19 13 48 51 47 45 46 47 57 63 64 54 46 50
23 26 27 28 26 20 19 27 30 20 28 22 23 24 25 21 20 18 14 13 16 15 22 35 35 34 29 34 36 31 24 20 20 17 37 37 34 37 37 41 41 42 36 38
22 24 29 25 27 30 15 31 31 36 20 13 22 19 13 17 13 13 9 9 10 14 21 27 32 33 43 44 38 37 29 25 24 21 22 26 29 32 34 34 36 39 38 39
22 21 24 26 22 21 25 32 27 39 31 19 18 18 17 16 12 14 12 9 9 13 19 24 28 29 30 35 41 37 36 32 27 23 25 25 26 30 31 31 33 35 38 42
23 26 23 24 25 26 27 23 24 22 23 23 16 17 20 16 15 12 14 10 10 13 19 24 26 26 27 29 30 35 37 35 33 29 28 30 29 28 30 28 33 36 37 42
25 22 19 19 20 26 24 21 23 20 21 21 16 16 16 15 17 17 15 16 16 18 22 25 26 28 30 33 35 36 38 36 34 35 33 31 32 30 30 31 37 40 43 43
22 20 13 17 22 20 16 16 16 16 15 11 10 7 20 17 17 15 15 15 17 19 21 24 28 28 29 30 31 33 34 34 36 37 34 35 34 33 31 30 25 28 35 37
20 18 17 13 11 15 11 8 10 14 11 10 21 29 30 19 14 17 25 16 11 14 18 19 21 23 26 27 28 30 32 33 33 35 35 34 31 29 27 27 26 25 31 28
21 9 8 19 26 28 33 31 24 26 23 14 7 10 27 17 26 28 11 14 9 6 10 12 13 16 20 23 25 26 28 30 32 34 35 34 31 29 28 28 40 42 42 42
19 10 6 33 21 7 22 25 22 23 27 32 36 41 39 32 11 9 12 28 15 6 4 6 8 11 13 16 19 21 24 26 28 30 32 34 36 36 38 40 41 44 45 47
24 23 41 8 29 52 15 11 6 7 4 15 13 21 10 12 11 13 24 24 17 10 5 6 5 6 9 12 16 18 20 23 25 27 30 33 37 40 43 44 46 48 49 50
7 6 9 24 24 7 27 38 30 12 14 11 12 13 18 20 25 31 34 24 16 14 12 7 6 6 9 12 14 18 20 22 23 25 28 31 35 38 41 43 44 47 47 50
23 12 1 7 7 33 20 13 9 2 19 12 27 32 26 11 33 23 25 39 20 10 11 7 3 3 7 9 11 14 14 16 18 20 23 26 30 33 38 41 42 44 45 48
10 8 1 21 14 11 16 15 43 8 9 17 9 21 26 5 12 18 12 37 37 16 11 7 5 5 5 6 8 9 8 9 10 12 15 20 24 26 28 30 32 35 37 40
21 13 15 12 18 14 13 12 33 15 10 17 4 3 1 6 9 18 29 18 19 12 4 7 3 4 4 3 5 3 5 5 8 13 18 22 26 30 34 35 38 42 45 48
20 21 25 19 27 32 27 26 17 27 62 52 23 20 18 17 18 16 17 19 23 22 27 13 5 2 1 2 2 2 4 8 12 17 22 26 31 34 38 41 43 47 49 54
34 30 38 26 34 47 33 44 26 46 62 55 40 31 27 25 25 40 29 40 48 38 32 24 16 14 10 7 6 7 7 10 11 17 22 28 32 35 39 42 44 48 50 54
52 40 48 52 60 42 53 53 64 58 46 75 47 39 38 38 38 38 41 56 52 45 42 36 27 23 22 18 16 16 18 17 18 22 26 30 33 37 38 41 45 47 50 54
52 58 62 55 57 71 60 50 56 82 73 67 65 57 49 45 49 51 53 61 62 56 51 45 38 34 30 24 21 21 21 18 21 27 29 31 34 37 41 43 46 48 50 50
53 54 58 59 62 63 67 83 78 61 62 68 75 73 59 56 57 59 60 64 62 60 61 53 44 37 33 27 24 22 19 18 22 27 30 32 35 37 42 44 48 48 51 54
Wind_Direction
331 331 324 329 333 331 327 320 316 319 327 320 320 317 319 323 326 332 331 328 324 321 323 324 320 316 313 311 309 309 305 301 299 293 286 279 275 273 269 267 265 267 265 265
342 338 349 347 345 341 335 327 325 329 330 325 327 325 330 348 358 353 344 334 327 327 328 327 325 321 317 312 309 305 304 302 301 301 294 283 277 274 270 266 262 263 264 267
350 351 353 347 342 337 337 336 334 330 335 344 338 346 1 10 13 2 350 342 334 337 337 337 336 334 330 323 316 309 302 299 299 297 296 289 280 275 269 265 261 260 263 267
354 1 352 349 346 346 340 354 345 340 344 351 349 352 31 17 13 5 356 356 5 6 8 2 348 334 330 328 323 317 308 299 295 294 290 288 280 271 268 264 263 259 259 257
352 355 353 350 358 0 355 269 266 251 167 243 45 31 33 39 37 43 38 47 43 35 27 12 8 6 357 354 350 337 322 305 295 290 288 284 281 276 266 264 260 256 259 265
4 353 350 194 183 171 224 252 220 142 118 265 80 51 49 56 65 44 60 38 51 44 27 17 22 26 18 17 13 11 5 321 308 301 293 285 278 273 266 258 258 253 257 268
196 184 143 159 175 179 256 269 257 240 259 205 73 85 90 90 70 64 62 64 66 52 41 38 33 31 25 27 30 43 58 63 344 315 307 297 285 281 267 257 254 257 260 263
192 176 144 122 101 156 189 62 312 230 268 247 77 101 99 93 87 93 97 93 76 61 54 44 44 42 38 40 44 54 69 72 84 193 290 294 292 274 271 262 256 252 273 270
204 174 64 94 77 51 147 60 56 27 84 195 110 100 156 127 105 101 110 105 73 59 59 53 55 55 52 50 55 60 70 79 93 121 212 241 260 259 254 253 256 258 267 275
172 172 153 107 119 135 81 45 61 19 291 217 131 102 123 105 89 75 87 89 76 63 60 56 57 59 60 58 61 67 73 80 93 113 131 181 229 231 237 246 256 267 271 281
155 143 153 139 137 122 101 104 101 103 97 117 111 121 123 101 80 64 70 75 69 68 60 60 60 63 64 68 70 72 77 82 88 105 127 141 177 215 231 268 266 273 292 298
139 152 153 160 156 133 130 139 128 132 146 148 131 177 115 91 62 59 55 52 50 55 52 51 56 60 63 66 71 75 80 86 94 98 111 131 146 173 192 259 276 288 295 301
114 138 186 143 129 120 130 119 136 103 95 166 117 133 68 56 36 34 25 19 29 39 42 43 45 49 57 63 69 74 80 87 93 100 113 117 127 135 148 136 184 259 295 294
88 140 146 159 148 93 192 175 141 170 177 188 217 246 244 263 355 1 345 337 346 15 26 36 41 47 52 58 66 69 73 80 89 93 100 109 121 131 144 130 133 131 44 57
65 137 164 223 236 242 245 239 225 219 219 220 250 250 256 279 275 273 304 341 10 15 26 37 46 51 52 54 61 67 73 74 72 72 73 77 87 93 93 70 348 332 331 336
40 48 25 256 245 179 246 238 225 223 224 231 242 256 256 257 251 313 3 12 11 358 3 31 49 57 66 68 69 70 70 70 69 64 58 52 44 37 26 16 7 356 348 341
4 8 355 237 356 276 257 54 75 23 355 220 239 248 286 294 316 348 355 354 348 339 337 9 36 65 67 68 70 72 73 69 63 56 48 39 29 18 7 359 352 347 344 342
216 187 199 247 264 214 11 351 353 343 325 256 293 299 340 347 353 347 348 344 337 339 339 334 5 33 50 57 63 56 56 51 47 41 35 29 23 16 8 3 358 352 350 345
198 198 294 218 240 258 264 73 72 122 249 226 227 232 233 276 346 268 6 0 4 345 340 319 301 45 57 68 64 59 54 49 42 37 35 31 26 18 9 2 358 355 353 349
32 171 216 3 350 351 26 33 333 58 232 171 173 223 224 360 268 265 5 352 348 251 232 219 175 123 99 106 93 91 93 76 69 59 50 38 32 28 23 19 15 11 6 1
354 347 240 267 328 316 299 334 346 26 27 20 19 258 308 305 259 358 337 266 254 358 332 14 112 168 168 101 85 80 50 43 44 37 26 20 16 11 8 5 2 357 353 349
330 334 330 328 327 328 345 359 347 344 319 331 339 338 328 317 322 299 308 334 349 349 351 355 351 293 246 162 163 283 318 358 6 4 1 359 358 356 354 352 349 347 345 342
315 308 317 301 311 320 317 316 310 321 318 323 323 317 317 313 313 326 327 333 333 337 339 336 324 320 311 290 265 288 311 344 355 354 352 351 351 351 350 348 346 344 344 341
313 304 304 313 311 289 303 306 306 310 307 305 310 309 309 309 315 320 324 322 324 329 327 326 320 311 305 300 291 298 318 322 328 333 338 342 343 344 345 346 345 344 343 341
307 315 308 293 288 303 300 301 306 301 310 311 308 310 308 307 311 314 316 316 315 315 319 317 310 306 302 298 291 298 308 312 316 324 329 334 337 339 340 342 342 342 343 342
307 304 298 277 266 300 304 305 308 309 308 311 309 308 309 306 306 309 311 312 313 313 313 312 307 304 305 298 290 291 296 300 312 319 325 331 334 337 339 340 340 343 344 343